This is the latest recevied weather packets stored in our database for station/object KJ5IIV. If no packets are shown the sender has not sent any weather packets the latest 10 day(s).
| Time | Temp. | Humidity | Pressure | Rain* | Wind** | Luminosity | Snow |
|---|---|---|---|---|---|---|---|
| 1777424353 | 24.44° C | 87% | 1008.4 hPa | 0 mm | - | 9 W/m² | - |
| 1777424049 | 24.44° C | 87% | 1009 hPa | 0 mm | - | 11 W/m² | - |
| 1777423746 | 24.44° C | 87% | 1009.4 hPa | 0 mm | - | 12 W/m² | - |
| 1777423442 | 24.44° C | 87% | 1009.3 hPa | 0 mm | - | 16 W/m² | - |
| 1777423137 | 24.44° C | 87% | 1009 hPa | 0 mm | - | 14 W/m² | - |
| 1777422832 | 24.44° C | 87% | 1009.5 hPa | 0 mm | - | 10 W/m² | - |
| 1777422527 | 24.44° C | 87% | 1009.4 hPa | 0 mm | - | 10 W/m² | - |
| 1777422223 | 24.44° C | 87% | 1010.2 hPa | 0 mm | - | 8 W/m² | - |
| 1777421923 | 24.44° C | 88% | 1010.8 hPa | 0 mm | - | 6 W/m² | - |
| 1777421618 | 24.44° C | 89% | 1010.6 hPa | 0 mm | - | 5 W/m² | - |
| 1777421313 | 24.44° C | 90% | 1010.6 hPa | 0 mm | - | 5 W/m² | - |
| 1777421011 | 24.44° C | 89% | 1010.3 hPa | 0 mm | - | 6 W/m² | - |
| 1777420706 | 24.44° C | 89% | 1010.3 hPa | 0 mm | - | 7 W/m² | - |
| 1777420403 | 25° C | 89% | 1010.2 hPa | 0 mm | - | 8 W/m² | - |
| 1777420099 | 25° C | 88% | 1010.2 hPa | 0 mm | - | 9 W/m² | - |
| 1777419796 | 25° C | 88% | 1010.2 hPa | 0 mm | - | 11 W/m² | - |
| 1777419493 | 25° C | 88% | 1010.2 hPa | 0 mm | - | 10 W/m² | - |
| 1777419192 | 25° C | 88% | 1010.6 hPa | 0 mm | - | 10 W/m² | - |
| 1777418889 | 25° C | 88% | 1010.3 hPa | 0 mm | - | 13 W/m² | - |
| 1777418584 | 25° C | 88% | 1010.7 hPa | 0 mm | - | 13 W/m² | - |
| 1777418281 | 25° C | 87% | 1011 hPa | 0 mm | - | 14 W/m² | - |
| 1777417976 | 25° C | 87% | 1011.2 hPa | 0 mm | - | 14 W/m² | - |
| 1777417672 | 25.56° C | 86% | 1011.4 hPa | 0 mm | - | 16 W/m² | - |
| 1777417367 | 25.56° C | 86% | 1011.6 hPa | 0 mm | - | 16 W/m² | - |
| 1777417064 | 25.56° C | 85% | 1011.4 hPa | 0 mm | - | 13 W/m² | - |
* Rain latest hour (hover to see other rain measurements)
** Current wind speed in m/s (hover to see current wind gust speed)